Flag for Vietnam Weather past 2 weeks in Ho Chi Minh, Vietnam

Now
86 °F

Scattered clouds.


Feels Like: 93 °F
Forecast: 76 / 90 °F
Wind: 6 mph from North

Location: Ho Chi Minh

Current Time: Sep 3, 2014 at 10:00:46 AM

Latest Report: Sep 3, 2014 at 9:30 AM


Visibility: N/A

Pressure: 29.89 "Hg

Humidity: 66%

Dew point: 73 °F

Location of Ho Chi MinhLocation

Historic Weather in Ho Chi Minh — Graph

°F

Ho Chi Minh temperature yesterday

Maximum temperature yesterday: 91 °F (at 1:00 PM)
Minimum temperature yesterday: 73 °F (at 5:00 AM)
Average temperature yesterday: 83 °F

Past Weeks' High & Low Weather Summary

 TemperatureHumidityPressure
High97 °F (Aug 21, 2:30 PM)100% (Aug 19, 4:00 PM)29.92 "Hg (Aug 19, 4:00 PM)
Low73 °F (Sep 2, 5:00 AM)44% (Aug 21, 1:30 PM)29.65 "Hg (Aug 25, 2:00 PM)
Average81 °F79%29.78 "Hg
* Reported Aug 19 9:00 AM — Sep 3 9:00 AM, Ho Chi Minh, Weather by CustomWeather, © 2014

Note: Actual official high and low records may vary slightly from our data, if they occured in-between our weather recording intervals... More about our weather records

Advertising

Ho Chi Minh weather history for previous 24 hours

 ConditionsComfort  
Time TempWeatherWind HumidityBarometerVisibility
9:00 AM
Sep 3
86 °FScattered clouds.6 mph66%29.89 "HgN/A
8:30 AM84 °FScattered clouds.6 mph70%29.92 "HgN/A
8:00 AM84 °FScattered clouds.3 mph74%29.89 "HgN/A
7:30 AM82 °FPassing clouds.6 mph79%29.89 "HgN/A
7:00 AM81 °FSunny.6 mph84%29.89 "Hg10 mi
6:30 AM79 °FPassing clouds.3 mph89%29.86 "HgN/A
6:00 AM77 °FPassing clouds.6 mph94%29.86 "HgN/A
5:30 AM77 °FClear.6 mph89%29.86 "Hg10 mi
5:00 AM77 °FPassing clouds.5 mph89%29.86 "HgN/A
4:30 AM77 °FPassing clouds.5 mph89%29.83 "HgN/A
4:00 AM77 °FPassing clouds.6 mph89%29.83 "HgN/A
3:30 AM77 °FPassing clouds.3 mph89%29.83 "HgN/A
3:00 AM77 °FPassing clouds.5 mph89%29.83 "HgN/A
2:30 AM77 °FPassing clouds.5 mph89%29.83 "HgN/A
2:00 AM77 °FPassing clouds.5 mph89%29.83 "HgN/A
1:30 AM77 °FPassing clouds.5 mph89%29.83 "HgN/A
1:00 AM79 °FPassing clouds.5 mph84%29.83 "HgN/A
12:30 AM79 °FPassing clouds.7 mph84%29.86 "HgN/A
12:00 AM79 °FPassing clouds.6 mph84%29.86 "HgN/A
11:30 PM
Sep 2
79 °FPassing clouds.6 mph84%29.86 "HgN/A
11:00 PM79 °FPassing clouds.6 mph84%29.86 "HgN/A
10:30 PM81 °FPassing clouds.6 mph79%29.86 "HgN/A
10:00 PM81 °FPassing clouds.6 mph79%29.86 "HgN/A
9:30 PM81 °FPassing clouds.6 mph79%29.86 "HgN/A
9:00 PM82 °FPassing clouds.8 mph74%29.83 "HgN/A
8:30 PM82 °FPassing clouds.8 mph74%29.83 "HgN/A
8:00 PM82 °FPassing clouds.7 mph74%29.80 "HgN/A
7:30 PM82 °FPassing clouds.6 mph74%29.80 "HgN/A
6:30 PM84 °FThunderstorms. Passing clouds.8 mph70%29.80 "HgN/A
6:00 PM84 °FThunderstorms. Cloudy.3 mph70%29.80 "HgN/A
5:30 PM86 °FPassing clouds.7 mph66%29.77 "HgN/A
5:00 PM86 °FPassing clouds.8 mph62%29.77 "HgN/A
4:30 PM86 °FPassing clouds.10 mph66%29.77 "HgN/A
3:30 PM86 °FScattered clouds.14 mph66%29.77 "HgN/A
3:00 PM84 °FScattered clouds.16 mph66%29.77 "HgN/A
2:30 PM90 °FScattered clouds.9 mph59%29.77 "HgN/A
2:00 PM88 °FPartly sunny.12 mph59%29.77 "HgN/A
1:30 PM88 °FPartly sunny.13 mph62%29.80 "HgN/A
1:00 PM91 °FScattered clouds.13 mph52%29.80 "HgN/A
12:30 PM90 °FPartly sunny.12 mph55%29.80 "HgN/A
12:00 PM90 °FPartly sunny.12 mph59%29.83 "HgN/A
11:30 AM90 °FScattered clouds.12 mph59%29.83 "HgN/A
11:00 AM90 °FScattered clouds.8 mph55%29.83 "HgN/A
10:30 AM88 °FScattered clouds.7 mph62%29.83 "HgN/A
10:00 AM88 °FScattered clouds.6 mph59%29.86 "HgN/A
Weather by CustomWeather, © 2014

See weather overviewHow to use our weather pages